CTV171 WARR-WIII

Flight info

Callsign CTV171
Flight time 1h 8m
Altitude 34000
Route LASEM T2 KALUT T6 KURUS
Aircraft A320/M-SDE3FGHIRWY/LB1

Departure

Time 2026-05-06 14:09
Airport Juanda International Airport (WARR)

Arrival

Time 2026-05-06 15:17
Airport Soekarno-Hatta International Airport (WIII)
Time Latitude Longitude Altitude Speed Heading
2026-05-06 13:41 -7.37580 112.79471 10 ft 0 kts
2026-05-06 13:58 -7.37600 112.79468 10 ft 4 kts
2026-05-06 13:58 -7.37626 112.79465 10 ft 4 kts
2026-05-06 13:58 -7.37653 112.79465 9 ft 4 kts 351°
2026-05-06 13:59 -7.37676 112.79473 9 ft 4 kts 305°
2026-05-06 13:59 -7.37681 112.79483 10 ft 1 kts 279°
2026-05-06 13:59 -7.37681 112.79484 10 ft 1 kts 279°
2026-05-06 14:01 -7.37681 112.79483 9 ft 1 kts 279°
2026-05-06 14:02 -7.37678 112.79455 9 ft 7 kts 277°
2026-05-06 14:02 -7.37671 112.79407 9 ft 6 kts 278°
2026-05-06 14:02 -7.37665 112.79367 9 ft 5 kts 278°
2026-05-06 14:02 -7.37660 112.79336 9 ft 4 kts 279°
2026-05-06 14:03 -7.37654 112.79303 9 ft 9 kts 279°
2026-05-06 14:03 -7.37642 112.79232 9 ft 10 kts 280°
2026-05-06 14:03 -7.37631 112.79168 10 ft 9 kts 279°
2026-05-06 14:03 -7.37635 112.79111 10 ft 7 kts 230°
2026-05-06 14:04 -7.37680 112.79095 9 ft 7 kts 192°
2026-05-06 14:04 -7.37754 112.79083 9 ft 15 kts 188°
2026-05-06 14:04 -7.37856 112.79038 9 ft 16 kts 247°
2026-05-06 14:04 -7.37848 112.78936 11 ft 14 kts 280°
2026-05-06 14:05 -7.37833 112.78843 9 ft 13 kts 279°
2026-05-06 14:05 -7.37819 112.78759 9 ft 11 kts 279°
2026-05-06 14:05 -7.37806 112.78680 9 ft 14 kts 279°
2026-05-06 14:05 -7.37786 112.78553 9 ft 22 kts 279°
2026-05-06 14:06 -7.37756 112.78370 9 ft 30 kts 279°
2026-05-06 14:06 -7.37721 112.78148 9 ft 33 kts 279°
2026-05-06 14:06 -7.37684 112.77917 9 ft 34 kts 279°
2026-05-06 14:06 -7.37647 112.77689 10 ft 33 kts 279°
2026-05-06 14:07 -7.37612 112.77469 8 ft 27 kts 279°
2026-05-06 14:07 -7.37675 112.77380 8 ft 17 kts 192°
2026-05-06 14:07 -7.37770 112.77384 9 ft 11 kts 118°
2026-05-06 14:07 -7.37779 112.77422 9 ft 0 kts 97°
2026-05-06 14:08 -7.37799 112.77557 9 ft 54 kts 99°
2026-05-06 14:09 -7.37896 112.78152 10 ft 115 kts 99°
2026-05-06 14:09 -7.38049 112.79118 18 ft 161 kts 99°
2026-05-06 14:09 -7.38226 112.80259 575 ft 161 kts 98°
2026-05-06 14:09 -7.38387 112.81335 1195 ft 154 kts 99°
2026-05-06 14:10 -7.38580 112.82461 1487 ft 174 kts 100°
2026-05-06 14:10 -7.38805 112.83738 1728 ft 197 kts 101°
2026-05-06 14:10 -7.39055 112.85173 2132 ft 215 kts 100°
2026-05-06 14:10 -7.39317 112.86696 2765 ft 224 kts 100°
2026-05-06 14:11 -7.39477 112.88239 3532 ft 227 kts 86°
2026-05-06 14:11 -7.39026 112.89772 4275 ft 233 kts 62°
2026-05-06 14:11 -7.37965 112.91019 5015 ft 239 kts 38°
2026-05-06 14:11 -7.36449 112.91746 5745 ft 249 kts 15°
2026-05-06 14:12 -7.34638 112.91786 6082 ft 276 kts 352°
2026-05-06 14:12 -7.32711 112.91387 6644 ft 287 kts 351°
2026-05-06 14:12 -7.30741 112.90981 7370 ft 291 kts 351°
2026-05-06 14:12 -7.28744 112.90575 8106 ft 294 kts 351°
2026-05-06 14:13 -7.26723 112.90168 8852 ft 297 kts 352°
2026-05-06 14:13 -7.24685 112.89762 9581 ft 300 kts 352°
2026-05-06 14:13 -7.22615 112.89352 10190 ft 307 kts 351°
2026-05-06 14:13 -7.20441 112.88925 10351 ft 330 kts 351°
2026-05-06 14:14 -7.18111 112.88461 10569 ft 349 kts 349°
2026-05-06 14:14 -7.15819 112.87565 11062 ft 359 kts 331°
2026-05-06 14:14 -7.13851 112.85994 11637 ft 365 kts 313°
2026-05-06 14:14 -7.12416 112.83881 12225 ft 368 kts 295°
2026-05-06 14:15 -7.11659 112.81455 12823 ft 369 kts 279°
2026-05-06 14:15 -7.11207 112.78904 13449 ft 371 kts 279°
2026-05-06 14:15 -7.10752 112.76346 14021 ft 373 kts 279°
2026-05-06 14:15 -7.10289 112.73764 14551 ft 375 kts 279°
2026-05-06 14:16 -7.09824 112.71174 15085 ft 377 kts 279°
2026-05-06 14:16 -7.09356 112.68567 15619 ft 379 kts 279°
2026-05-06 14:16 -7.08888 112.65946 16137 ft 382 kts 279°
2026-05-06 14:16 -7.08415 112.63304 16659 ft 384 kts 279°
2026-05-06 14:17 -7.07938 112.60652 17167 ft 386 kts 279°
2026-05-06 14:17 -7.07458 112.57980 17677 ft 389 kts 279°
2026-05-06 14:17 -7.06976 112.55295 18180 ft 391 kts 279°
2026-05-06 14:17 -7.06492 112.52592 18599 ft 394 kts 279°
2026-05-06 14:18 -7.06005 112.49869 19015 ft 396 kts 279°
2026-05-06 14:18 -7.05512 112.47130 19419 ft 399 kts 279°
2026-05-06 14:18 -7.05014 112.44372 19834 ft 401 kts 279°
2026-05-06 14:18 -7.04516 112.41598 20233 ft 404 kts 279°
2026-05-06 14:19 -7.04015 112.38806 20624 ft 406 kts 279°
2026-05-06 14:19 -7.03510 112.35999 21006 ft 409 kts 279°
2026-05-06 14:19 -7.03001 112.33176 21384 ft 411 kts 279°
2026-05-06 14:19 -7.02469 112.30339 21760 ft 414 kts 283°
2026-05-06 14:20 -7.01594 112.27605 22100 ft 417 kts 291°
2026-05-06 14:20 -7.00507 112.24882 22456 ft 420 kts 291°
2026-05-06 14:20 -6.99419 112.22144 22792 ft 423 kts 291°
2026-05-06 14:20 -6.98326 112.19384 23150 ft 425 kts 291°
2026-05-06 14:21 -6.97230 112.16609 23503 ft 427 kts 291°
2026-05-06 14:21 -6.96042 112.13864 23796 ft 429 kts 298°
2026-05-06 14:21 -6.94465 112.11304 24098 ft 431 kts 303°
2026-05-06 14:21 -6.92806 112.08782 24399 ft 432 kts 303°
2026-05-06 14:22 -6.91162 112.06282 24699 ft 434 kts 303°
2026-05-06 14:22 -6.89500 112.03742 24988 ft 436 kts 302°
2026-05-06 14:22 -6.87830 112.01185 25273 ft 438 kts 303°
2026-05-06 14:22 -6.86156 111.98622 25563 ft 439 kts 302°
2026-05-06 14:23 -6.84475 111.96052 25852 ft 441 kts 303°
2026-05-06 14:23 -6.82783 111.93467 26144 ft 442 kts 303°
2026-05-06 14:23 -6.81084 111.90877 26427 ft 444 kts 302°
2026-05-06 14:23 -6.79382 111.88285 26687 ft 445 kts 302°
2026-05-06 14:24 -6.77667 111.85674 26965 ft 447 kts 302°
2026-05-06 14:24 -6.75952 111.83059 27227 ft 448 kts 302°
2026-05-06 14:24 -6.74238 111.80439 27501 ft 450 kts 302°
2026-05-06 14:24 -6.72514 111.77804 27766 ft 451 kts 302°
2026-05-06 14:25 -6.70786 111.75164 28033 ft 453 kts 302°
2026-05-06 14:25 -6.69054 111.72517 28299 ft 454 kts 302°
2026-05-06 14:25 -6.67312 111.69855 28561 ft 456 kts 302°
2026-05-06 14:25 -6.65566 111.67190 28804 ft 457 kts 302°
2026-05-06 14:26 -6.63811 111.64509 29031 ft 459 kts 302°
2026-05-06 14:26 -6.62053 111.61808 29276 ft 461 kts 300°
2026-05-06 14:26 -6.60518 111.58978 29489 ft 462 kts 296°
2026-05-06 14:26 -6.59031 111.56108 29731 ft 463 kts 296°
2026-05-06 14:27 -6.57541 111.53226 29947 ft 464 kts 296°
2026-05-06 14:27 -6.56045 111.50339 30137 ft 466 kts 296°
2026-05-06 14:27 -6.54545 111.47448 30358 ft 467 kts 296°
2026-05-06 14:27 -6.53057 111.44591 30559 ft 467 kts 296°
2026-05-06 14:28 -6.51550 111.41697 30767 ft 468 kts 296°
2026-05-06 14:28 -6.50034 111.38793 30982 ft 468 kts 296°
2026-05-06 14:28 -6.48525 111.35897 31272 ft 467 kts 296°
2026-05-06 14:28 -6.47022 111.33006 31550 ft 466 kts 296°
2026-05-06 14:29 -6.45522 111.30117 31831 ft 465 kts 296°
2026-05-06 14:29 -6.44025 111.27234 32115 ft 464 kts 297°
2026-05-06 14:29 -6.42527 111.24356 32391 ft 463 kts 297°
2026-05-06 14:29 -6.41034 111.21486 32640 ft 464 kts 297°
2026-05-06 14:30 -6.39541 111.18612 32922 ft 463 kts 297°
2026-05-06 14:30 -6.38053 111.15748 33228 ft 462 kts 297°
2026-05-06 14:30 -6.36562 111.12885 33513 ft 461 kts 297°
2026-05-06 14:30 -6.35071 111.10032 33760 ft 462 kts 297°
2026-05-06 14:31 -6.33560 111.07184 33869 ft 460 kts 298°
2026-05-06 14:31 -6.32050 111.04370 33890 ft 455 kts 298°
2026-05-06 14:31 -6.29039 110.98807 33886 ft 453 kts 298°
2026-05-06 14:32 -6.26033 110.93247 33885 ft 451 kts 298°
2026-05-06 14:32 -6.23048 110.87700 33886 ft 450 kts 298°
2026-05-06 14:33 -6.20094 110.82184 33883 ft 451 kts 298°
2026-05-06 14:33 -6.17115 110.76632 33883 ft 451 kts 298°
2026-05-06 14:34 -6.14132 110.71087 33869 ft 451 kts 298°
2026-05-06 14:34 -6.11142 110.65535 33866 ft 451 kts 298°
2026-05-06 14:35 -6.08160 110.59978 33868 ft 452 kts 298°
2026-05-06 14:35 -6.05187 110.54453 33866 ft 452 kts 298°
2026-05-06 14:36 -6.02189 110.48899 33866 ft 453 kts 298°
2026-05-06 14:36 -5.99184 110.43328 33869 ft 453 kts 298°
2026-05-06 14:37 -5.96903 110.37444 33877 ft 454 kts 281°
2026-05-06 14:37 -5.96504 110.31117 33876 ft 455 kts 270°
2026-05-06 14:38 -5.96506 110.24760 33875 ft 456 kts 270°
2026-05-06 14:38 -5.96504 110.19466 33877 ft 456 kts 270°
2026-05-06 14:39 -5.96496 110.13099 33878 ft 456 kts 270°
2026-05-06 14:39 -5.96435 110.06723 33864 ft 456 kts 271°
2026-05-06 14:40 -5.96441 110.00343 33874 ft 457 kts 270°
2026-05-06 14:40 -5.96488 109.93959 33882 ft 457 kts 270°
2026-05-06 14:41 -5.96504 109.87619 33884 ft 457 kts 270°
2026-05-06 14:41 -5.96490 109.81236 33886 ft 457 kts 271°
2026-05-06 14:42 -5.96478 109.74857 33897 ft 457 kts 271°
2026-05-06 14:42 -5.96476 109.68479 33899 ft 456 kts 271°
2026-05-06 14:43 -5.96468 109.62106 33896 ft 456 kts 270°
2026-05-06 14:43 -5.96467 109.55732 33897 ft 456 kts 271°
2026-05-06 14:44 -5.96464 109.49364 33903 ft 456 kts 271°
2026-05-06 14:45 -5.96427 109.39796 33889 ft 456 kts 271°
2026-05-06 14:45 -5.96418 109.33405 33886 ft 457 kts 271°
2026-05-06 14:46 -5.96421 109.27049 33886 ft 457 kts 270°
2026-05-06 14:46 -5.96413 109.20662 33884 ft 457 kts 272°
2026-05-06 14:47 -5.96397 109.14272 33884 ft 457 kts 270°
2026-05-06 14:47 -5.96383 109.07881 33877 ft 458 kts 271°
2026-05-06 14:48 -5.96366 109.01479 33869 ft 459 kts 271°
2026-05-06 14:48 -5.96352 108.95056 33875 ft 460 kts 271°
2026-05-06 14:49 -5.96343 108.88653 33889 ft 461 kts 271°
2026-05-06 14:49 -5.96323 108.82195 33890 ft 461 kts 271°
2026-05-06 14:50 -5.96301 108.75756 33892 ft 461 kts 271°
2026-05-06 14:50 -5.96279 108.69345 33885 ft 462 kts 271°
2026-05-06 14:51 -5.96267 108.62896 33896 ft 462 kts 270°
2026-05-06 14:51 -5.96255 108.56443 33893 ft 462 kts 271°
2026-05-06 14:52 -5.96231 108.49989 33896 ft 462 kts 270°
2026-05-06 14:52 -5.96215 108.43526 33892 ft 462 kts 270°
2026-05-06 14:53 -5.96211 108.37055 33900 ft 462 kts 270°
2026-05-06 14:53 -5.96205 108.30592 33895 ft 463 kts 270°
2026-05-06 14:54 -5.96208 108.24170 33898 ft 463 kts 270°
2026-05-06 14:54 -5.96203 108.17699 33889 ft 464 kts 270°
2026-05-06 14:54 -5.96196 108.14444 33647 ft 465 kts 270°
2026-05-06 14:55 -5.96190 108.11199 33210 ft 462 kts 270°
2026-05-06 14:55 -5.96186 108.07982 32609 ft 459 kts 270°
2026-05-06 14:55 -5.96181 108.04782 32031 ft 457 kts 270°
2026-05-06 14:55 -5.96177 108.01596 31453 ft 454 kts 270°
2026-05-06 14:56 -5.96173 107.98427 30888 ft 453 kts 270°
2026-05-06 14:56 -5.96169 107.95267 30328 ft 451 kts 270°
2026-05-06 14:56 -5.96169 107.92123 29737 ft 449 kts 270°
2026-05-06 14:56 -5.96171 107.88993 29159 ft 446 kts 270°
2026-05-06 14:57 -5.96172 107.85932 28617 ft 442 kts 270°
2026-05-06 14:57 -5.96173 107.82857 28076 ft 439 kts 270°
2026-05-06 14:57 -5.96171 107.79806 27540 ft 435 kts 270°
2026-05-06 14:57 -5.96168 107.76772 27001 ft 432 kts 270°
2026-05-06 14:58 -5.96165 107.73761 26469 ft 430 kts 270°
2026-05-06 14:58 -5.96164 107.70766 25939 ft 427 kts 270°
2026-05-06 14:58 -5.96166 107.67788 25409 ft 424 kts 270°
2026-05-06 14:58 -5.96168 107.64833 24886 ft 422 kts 270°
2026-05-06 14:59 -5.96169 107.61907 24566 ft 414 kts 270°
2026-05-06 14:59 -5.96170 107.59023 24142 ft 410 kts 270°
2026-05-06 14:59 -5.96173 107.56161 23693 ft 407 kts 270°
2026-05-06 14:59 -5.96174 107.53331 23199 ft 405 kts 270°
2026-05-06 15:00 -5.96175 107.50516 22688 ft 402 kts 270°
2026-05-06 15:00 -5.96176 107.47709 22176 ft 400 kts 270°
2026-05-06 15:00 -5.96176 107.44970 21745 ft 396 kts 270°
2026-05-06 15:00 -5.96175 107.42215 21314 ft 393 kts 270°
2026-05-06 15:01 -5.96174 107.39482 20867 ft 390 kts 270°
2026-05-06 15:01 -5.96172 107.36768 20455 ft 387 kts 270°
2026-05-06 15:01 -5.96173 107.34072 20042 ft 384 kts 270°
2026-05-06 15:01 -5.96174 107.31400 19634 ft 381 kts 270°
2026-05-06 15:02 -5.96172 107.28745 19225 ft 378 kts 270°
2026-05-06 15:02 -5.96165 107.26112 18832 ft 376 kts 270°
2026-05-06 15:02 -5.96156 107.23490 18442 ft 374 kts 270°
2026-05-06 15:02 -5.96150 107.20892 18038 ft 371 kts 270°
2026-05-06 15:03 -5.96146 107.18305 17591 ft 369 kts 270°
2026-05-06 15:03 -5.96143 107.15733 17143 ft 367 kts 270°
2026-05-06 15:03 -5.96138 107.13179 16712 ft 365 kts 269°
2026-05-06 15:03 -5.96134 107.10626 16293 ft 363 kts 269°
2026-05-06 15:04 -5.96134 107.08129 15890 ft 362 kts 269°
2026-05-06 15:04 -5.96131 107.05613 15495 ft 360 kts 269°
2026-05-06 15:04 -5.96127 107.03098 15095 ft 358 kts 269°
2026-05-06 15:04 -5.96121 107.00601 14704 ft 357 kts 269°
2026-05-06 15:05 -5.96114 106.98112 14323 ft 355 kts 269°
2026-05-06 15:05 -5.96106 106.95635 13947 ft 354 kts 269°
2026-05-06 15:05 -5.96099 106.93162 13564 ft 353 kts 269°
2026-05-06 15:05 -5.96092 106.90702 13145 ft 351 kts 269°
2026-05-06 15:06 -5.96083 106.88262 12763 ft 348 kts 269°
2026-05-06 15:06 -5.96073 106.85836 12443 ft 344 kts 269°
2026-05-06 15:06 -5.96064 106.83472 12320 ft 333 kts 269°
2026-05-06 15:06 -5.96055 106.81179 12195 ft 323 kts 269°
2026-05-06 15:07 -5.96174 106.78985 12034 ft 314 kts 258°
2026-05-06 15:07 -5.96818 106.76920 11752 ft 309 kts 246°
2026-05-06 15:07 -5.97641 106.74927 11428 ft 307 kts 246°
2026-05-06 15:07 -5.98453 106.72941 11109 ft 306 kts 246°
2026-05-06 15:08 -5.99255 106.70965 10795 ft 305 kts 246°
2026-05-06 15:08 -6.00050 106.69002 10482 ft 303 kts 247°
2026-05-06 15:08 -6.00845 106.67041 10159 ft 302 kts 247°
2026-05-06 15:08 -6.01633 106.65091 9846 ft 301 kts 247°
2026-05-06 15:09 -6.02420 106.63148 9502 ft 299 kts 247°
2026-05-06 15:09 -6.03203 106.61217 9196 ft 296 kts 247°
2026-05-06 15:09 -6.03956 106.59357 9073 ft 286 kts 247°
2026-05-06 15:09 -6.04701 106.57514 8917 ft 277 kts 247°
2026-05-06 15:10 -6.05418 106.55734 8641 ft 274 kts 247°
2026-05-06 15:10 -6.06120 106.53988 8327 ft 272 kts 247°
2026-05-06 15:10 -6.06830 106.52227 8002 ft 271 kts 247°
2026-05-06 15:10 -6.07535 106.50478 7673 ft 269 kts 247°
2026-05-06 15:11 -6.08235 106.48736 7358 ft 269 kts 247°
2026-05-06 15:11 -6.08933 106.47002 6980 ft 269 kts 247°
2026-05-06 15:11 -6.09658 106.45209 6298 ft 283 kts 247°
2026-05-06 15:11 -6.10505 106.43382 5556 ft 295 kts 233°
2026-05-06 15:12 -6.12080 106.42063 4796 ft 301 kts 200°
2026-05-06 15:12 -6.14142 106.41719 4015 ft 305 kts 175°
2026-05-06 15:12 -6.16211 106.42193 3228 ft 310 kts 150°
2026-05-06 15:12 -6.17794 106.43632 2439 ft 311 kts 120°
2026-05-06 15:13 -6.18397 106.45670 2086 ft 300 kts 93°
2026-05-06 15:13 -6.18313 106.47707 2000 ft 282 kts 82°
2026-05-06 15:13 -6.17876 106.49536 2007 ft 261 kts 62°
2026-05-06 15:13 -6.16891 106.50961 2002 ft 234 kts 54°
2026-05-06 15:14 -6.16116 106.52272 1998 ft 210 kts 65°
2026-05-06 15:14 -6.15564 106.53593 2006 ft 201 kts 69°
2026-05-06 15:14 -6.15075 106.54889 2008 ft 197 kts 70°
2026-05-06 15:14 -6.14594 106.56179 1753 ft 195 kts 69°
2026-05-06 15:15 -6.14126 106.57414 1500 ft 184 kts 69°
2026-05-06 15:15 -6.13684 106.58562 1281 ft 165 kts 70°
2026-05-06 15:15 -6.13282 106.59593 1053 ft 152 kts 70°
2026-05-06 15:15 -6.12906 106.60551 878 ft 145 kts 70°
2026-05-06 15:16 -6.12537 106.61492 700 ft 144 kts 69°
2026-05-06 15:16 -6.12171 106.62424 508 ft 143 kts 69°
2026-05-06 15:16 -6.11806 106.63352 318 ft 143 kts 68°
2026-05-06 15:16 -6.11455 106.64273 125 ft 140 kts 68°
2026-05-06 15:17 -6.11120 106.65126 35 ft 119 kts 68°
2026-05-06 15:17 -6.10862 106.65748 36 ft 77 kts 69°
2026-05-06 15:17 -6.10693 106.66169 35 ft 56 kts 67°
2026-05-06 15:17 -6.10616 106.66426 33 ft 27 kts 89°
2026-05-06 15:18 -6.10633 106.66553 32 ft 12 kts 103°
2026-05-06 15:18 -6.10660 106.66633 35 ft 12 kts 128°
2026-05-06 15:18 -6.10727 106.66667 35 ft 10 kts 158°
2026-05-06 15:18 -6.10791 106.66661 36 ft 12 kts 226°
2026-05-06 15:19 -6.10832 106.66563 36 ft 18 kts 249°
2026-05-06 15:19 -6.10885 106.66425 37 ft 24 kts 249°
2026-05-06 15:19 -6.10955 106.66251 37 ft 29 kts 245°
2026-05-06 15:19 -6.11033 106.66062 38 ft 30 kts 249°
2026-05-06 15:20 -6.11109 106.65863 36 ft 32 kts 249°
2026-05-06 15:20 -6.11194 106.65652 37 ft 33 kts 247°
2026-05-06 15:20 -6.11279 106.65437 37 ft 34 kts 248°
2026-05-06 15:20 -6.11368 106.65214 38 ft 35 kts 248°
2026-05-06 15:21 -6.11447 106.65014 38 ft 31 kts 249°
2026-05-06 15:21 -6.11526 106.64815 38 ft 27 kts 248°
2026-05-06 15:21 -6.11626 106.64772 39 ft 17 kts 159°
2026-05-06 15:21 -6.11737 106.64784 41 ft 16 kts 210°
2026-05-06 15:22 -6.11817 106.64706 38 ft 15 kts 222°
2026-05-06 15:22 -6.11898 106.64645 39 ft 14 kts 205°
2026-05-06 15:22 -6.11984 106.64624 38 ft 12 kts 218°
2026-05-06 15:22 -6.12022 106.64547 36 ft 14 kts 248°
2026-05-06 15:23 -6.12048 106.64480 38 ft 16 kts 248°
2026-05-06 15:23 -6.12110 106.64408 38 ft 13 kts 186°
2026-05-06 15:23 -6.12192 106.64434 38 ft 12 kts 158°
2026-05-06 15:23 -6.12262 106.64462 38 ft 10 kts 158°
2026-05-06 15:24 -6.12323 106.64486 38 ft 9 kts 158°
2026-05-06 15:24 -6.12375 106.64506 38 ft 7 kts 159°
2026-05-06 15:24 -6.12431 106.64527 38 ft 13 kts 159°
2026-05-06 15:24 -6.12544 106.64570 36 ft 22 kts 159°
2026-05-06 15:25 -6.12712 106.64640 38 ft 30 kts 158°
2026-05-06 15:25 -6.12913 106.64721 38 ft 32 kts 158°
2026-05-06 15:25 -6.13109 106.64799 37 ft 18 kts 155°
2026-05-06 15:25 -6.13117 106.64902 38 ft 17 kts 70°
2026-05-06 15:26 -6.13096 106.65016 35 ft 17 kts 124°
2026-05-06 15:26 -6.13208 106.65069 38 ft 19 kts 158°
2026-05-06 15:26 -6.13307 106.65158 38 ft 20 kts 128°
2026-05-06 15:26 -6.13326 106.65258 38 ft 10 kts 71°
2026-05-06 15:27 -6.13279 106.65272 38 ft 4 kts 335°
2026-05-06 15:27 -6.13259 106.65263 38 ft 3 kts 337°
2026-05-06 15:27 -6.13255 106.65261 38 ft 0 kts 337°